sat.trackr.live / text

‹ back to catalog

STARLINK-4554

NORAD 53626 · 2022-104AQ

PAYLOAD ACTIVE UNKNOWN

§ Identity

Operator
Country
US
Launch date
2022-08-28
Launch site
AFETR
Launch vehicle
Mass (kg)
RCS (m²)

Purposes: comms

External: N2YO · Heavens-Above · Gunter

§ Orbital elements

Epoch: 2026-05-25T00:31:25.188384Z

Period
95.44 min
Inclination
53.2145°
Eccentricity
0.0001136
Mean motion
15.08842464 rev/d
Perigee alt
538.9 km
Apogee alt
540.5 km
Semi-major
6,917.9 km
B*
4.6685e-5
RAAN
251.0886°
Arg perigee
117.2257°
Mean anomaly
242.8851°
Rev number
20,728

§ Raw data

STARLINK-45541 53626U 22104AQ  26145.02181931  .00000455  00000+0  46685-4 0  99902 53626  53.2145 251.0886 0001136 117.2257 242.8851 15.08842464207281

JSON: /api/v1/satellites/53626 · /tle

For live sub-satellite position, see the globe view (requires WebGL).

§ Visibility from observer

Set your observer location to see the next 7 days of passes ≥ 10°. The values pass through the URL so the page stays shareable.

No JS? Fill the form by hand. The geolocation button needs JavaScript.